Powrót do katalogu

NOAA 16 DEB

AktywnyPO
NORAD 41224·DEBRIS·🇺🇸 United States

Wystrzelony Sep 21, 2000 z Vandenberg Space Force Base

Loading…

Następne Przeloty (najbliższe 24 godziny)

TLE

ŚwieżeSource: Space-Track

Epoka: Sep 14, 2026, 09:02 UTC

1 41224U 00055ED  26257.37680682  .00022681  00000-0  34317-2 0  9994
2 41224  98.8915  49.9045 0016298 136.1725 224.0777 14.74126482557181

Śledź NOAA 16 DEB w czasie rzeczywistym z AllMySat

Download on the App Store